owner,sensor,date,latitude,longitude,vertical_datum,sea_water_speed,direction_of_sea_water_velocity,upward_sea_water_velocity,qcFlag
Anadarko,ioos:station:wmo:42377:1,2022-02-01T00:02:00Z,27.2925,-90.9681,21.3,25.3,104.9,-9999.0,'111111111,111111111,999999991'
Anadarko,ioos:station:wmo:42377:1,2022-02-01T00:22:00Z,27.2925,-90.9681,21.3,23.9,106.5,-9999.0,'111111111,111111111,999999991'
Anadarko,ioos:station:wmo:42377:1,2022-02-01T00:42:00Z,27.2925,-90.9681,21.3,21.1,125.0,-9999.0,'111111111,111111111,999999991'
Anadarko,ioos:station:wmo:42377:1,2022-02-01T01:02:00Z,27.2925,-90.9681,21.3,27.3,101.6,-9999.0,'111111111,111111111,999999991'
Anadarko,ioos:station:wmo:42377:1,2022-02-01T01:22:00Z,27.2925,-90.9681,21.3,27.7,108.8,-9999.0,'111111111,111111111,999999991'
Anadarko,ioos:station:wmo:42377:1,2022-02-01T01:42:00Z,27.2925,-90.9681,21.3,24.7,111.2,-9999.0,'111111111,111111111,999999991'
Anadarko,ioos:station:wmo:42377:1,2022-02-01T02:02:00Z,27.2925,-90.9681,21.3,32.7,100.9,-9999.0,'111111111,111111111,999999991'
Anadarko,ioos:station:wmo:42377:1,2022-02-01T02:22:00Z,27.2925,-90.9681,21.3,36.5,100.3,-9999.0,'111111111,111111111,999999991'
Anadarko,ioos:station:wmo:42377:1,2022-02-01T02:42:00Z,27.2925,-90.9681,21.3,40.0,96.8,-9999.0,'111111111,111111111,999999991'
Anadarko,ioos:station:wmo:42377:1,2022-02-01T03:02:00Z,27.2925,-90.9681,21.3,41.4,100.4,-9999.0,'111111111,111111111,999999991'
Anadarko,ioos:station:wmo:42377:1,2022-02-01T03:22:00Z,27.2925,-90.9681,21.3,36.5,101.2,-9999.0,'111111111,111111111,999999991'
Anadarko,ioos:station:wmo:42377:1,2022-02-01T03:42:00Z,27.2925,-90.9681,21.3,43.0,104.3,-9999.0,'111111111,111111111,999999991'
Anadarko,ioos:station:wmo:42377:1,2022-02-01T04:02:00Z,27.2925,-90.9681,21.3,38.5,107.9,-9999.0,'111111111,111111111,999999991'
Anadarko,ioos:station:wmo:42377:1,2022-02-01T04:22:00Z,27.2925,-90.9681,21.3,48.0,100.9,-9999.0,'111111111,111111111,999999991'
Anadarko,ioos:station:wmo:42377:1,2022-02-01T04:42:00Z,27.2925,-90.9681,21.3,44.7,109.7,-9999.0,'111111111,111111111,999999991'
Anadarko,ioos:station:wmo:42377:1,2022-02-01T05:02:00Z,27.2925,-90.9681,21.3,43.0,114.3,-9999.0,'111111111,111111111,999999991'
Anadarko,ioos:station:wmo:42377:1,2022-02-01T05:22:00Z,27.2925,-90.9681,21.3,46.5,105.7,-9999.0,'111111111,111111111,999999991'
Anadarko,ioos:station:wmo:42377:1,2022-02-01T05:42:00Z,27.2925,-90.9681,21.3,47.8,107.1,-9999.0,'111111111,111111111,999999991'
Anadarko,ioos:station:wmo:42377:1,2022-02-01T06:02:00Z,27.2925,-90.9681,21.3,49.3,105.9,-9999.0,'111111111,111111111,999999991'
Anadarko,ioos:station:wmo:42377:1,2022-02-01T06:22:00Z,27.2925,-90.9681,21.3,48.9,107.1,-9999.0,'111111111,111111111,999999991'
Anadarko,ioos:station:wmo:42377:1,2022-02-01T06:42:00Z,27.2925,-90.9681,21.3,46.4,110.7,-9999.0,'111111111,111111111,999999991'
Anadarko,ioos:station:wmo:42377:1,2022-02-01T07:02:00Z,27.2925,-90.9681,21.3,43.3,110.4,-9999.0,'111111111,111111111,999999991'
Anadarko,ioos:station:wmo:42377:1,2022-02-01T07:22:00Z,27.2925,-90.9681,21.3,43.8,107.5,-9999.0,'111111111,111111111,999999991'
Anadarko,ioos:station:wmo:42377:1,2022-02-01T07:42:00Z,27.2925,-90.9681,21.3,41.4,107.3,-9999.0,'111111111,111111111,999999991'
Anadarko,ioos:station:wmo:42377:1,2022-02-01T08:02:00Z,27.2925,-90.9681,21.3,39.2,110.6,-9999.0,'111111111,111111111,999999991'
Anadarko,ioos:station:wmo:42377:1,2022-02-01T08:22:00Z,27.2925,-90.9681,21.3,43.2,106.8,-9999.0,'111111111,111111111,999999991'
Anadarko,ioos:station:wmo:42377:1,2022-02-01T08:42:00Z,27.2925,-90.9681,21.3,41.7,107.3,-9999.0,'111111111,111111111,999999991'
Anadarko,ioos:station:wmo:42377:1,2022-02-01T09:02:00Z,27.2925,-90.9681,21.3,42.9,105.0,-9999.0,'111111111,111111111,999999991'
Anadarko,ioos:station:wmo:42377:1,2022-02-01T09:22:00Z,27.2925,-90.9681,21.3,37.1,108.9,-9999.0,'111111111,111111111,999999991'
Anadarko,ioos:station:wmo:42377:1,2022-02-01T09:42:00Z,27.2925,-90.9681,21.3,31.3,113.0,-9999.0,'111111111,111111111,999999991'
Anadarko,ioos:station:wmo:42377:1,2022-02-01T10:02:00Z,27.2925,-90.9681,21.3,29.4,110.1,-9999.0,'111111111,111111111,999999991'
Anadarko,ioos:station:wmo:42377:1,2022-02-01T10:22:00Z,27.2925,-90.9681,21.3,27.0,104.8,-9999.0,'111111111,111111111,999999991'
Anadarko,ioos:station:wmo:42377:1,2022-02-01T10:42:00Z,27.2925,-90.9681,21.3,28.0,107.3,-9999.0,'111111111,111111111,999999991'
Anadarko,ioos:station:wmo:42377:1,2022-02-01T11:02:00Z,27.2925,-90.9681,21.3,27.2,112.7,-9999.0,'111111111,111111111,999999991'
Anadarko,ioos:station:wmo:42377:1,2022-02-01T11:22:00Z,27.2925,-90.9681,21.3,26.9,115.5,-9999.0,'111111111,111111111,999999991'
Anadarko,ioos:station:wmo:42377:1,2022-02-01T11:42:00Z,27.2925,-90.9681,21.3,30.2,110.1,-9999.0,'111111111,111111111,999999991'
Anadarko,ioos:station:wmo:42377:1,2022-02-01T12:02:00Z,27.2925,-90.9681,21.3,24.3,122.4,-9999.0,'111111111,111111111,999999991'
Anadarko,ioos:station:wmo:42377:1,2022-02-01T12:22:00Z,27.2925,-90.9681,21.3,26.0,117.9,-9999.0,'111111111,111111111,999999991'
Anadarko,ioos:station:wmo:42377:1,2022-02-01T12:42:00Z,27.2925,-90.9681,21.3,24.8,121.8,-9999.0,'111111111,111111111,999999991'
Anadarko,ioos:station:wmo:42377:1,2022-02-01T13:02:00Z,27.2925,-90.9681,21.3,22.1,127.6,-9999.0,'111111111,111111111,999999991'
Anadarko,ioos:station:wmo:42377:1,2022-02-01T13:22:00Z,27.2925,-90.9681,21.3,20.7,133.6,-9999.0,'111111111,111111111,999999991'
Anadarko,ioos:station:wmo:42377:1,2022-02-01T13:42:00Z,27.2925,-90.9681,21.3,18.9,139.9,-9999.0,'111111111,111111111,999999991'
Anadarko,ioos:station:wmo:42377:1,2022-02-01T14:02:00Z,27.2925,-90.9681,21.3,21.5,127.5,-9999.0,'111111111,111111111,999999991'
Anadarko,ioos:station:wmo:42377:1,2022-02-01T14:22:00Z,27.2925,-90.9681,21.3,18.2,136.3,-9999.0,'111111111,111111111,999999991'
Anadarko,ioos:station:wmo:42377:1,2022-02-01T14:42:00Z,27.2925,-90.9681,21.3,19.5,131.7,-9999.0,'111111111,111111111,999999991'
Anadarko,ioos:station:wmo:42377:1,2022-02-01T15:02:00Z,27.2925,-90.9681,21.3,19.8,126.2,-9999.0,'111111111,111111111,999999991'
Anadarko,ioos:station:wmo:42377:1,2022-02-01T15:22:00Z,27.2925,-90.9681,21.3,21.4,125.1,-9999.0,'111111111,111111111,999999991'
Anadarko,ioos:station:wmo:42377:1,2022-02-01T15:42:00Z,27.2925,-90.9681,21.3,23.3,116.2,-9999.0,'111111111,111111111,999999991'
Anadarko,ioos:station:wmo:42377:1,2022-02-01T16:02:00Z,27.2925,-90.9681,21.3,20.9,119.5,-9999.0,'111111111,111111111,999999991'
Anadarko,ioos:station:wmo:42377:1,2022-02-01T16:22:00Z,27.2925,-90.9681,21.3,18.0,128.9,-9999.0,'111111111,111111111,999999991'
Anadarko,ioos:station:wmo:42377:1,2022-02-01T16:42:00Z,27.2925,-90.9681,21.3,18.6,130.9,-9999.0,'111111111,111111111,999999991'
Anadarko,ioos:station:wmo:42377:1,2022-02-01T17:02:00Z,27.2925,-90.9681,21.3,19.9,121.2,-9999.0,'111111111,111111111,999999991'
Anadarko,ioos:station:wmo:42377:1,2022-02-01T17:22:00Z,27.2925,-90.9681,21.3,23.0,114.7,-9999.0,'111111111,111111111,999999991'
Anadarko,ioos:station:wmo:42377:1,2022-02-01T17:42:00Z,27.2925,-90.9681,21.3,22.3,123.5,-9999.0,'111111111,111111111,999999991'
Anadarko,ioos:station:wmo:42377:1,2022-02-01T18:02:00Z,27.2925,-90.9681,21.3,25.2,115.1,-9999.0,'111111111,111111111,999999991'
Anadarko,ioos:station:wmo:42377:1,2022-02-01T18:22:00Z,27.2925,-90.9681,21.3,29.9,112.2,-9999.0,'111111111,111111111,999999991'
Anadarko,ioos:station:wmo:42377:1,2022-02-01T18:42:00Z,27.2925,-90.9681,21.3,30.2,122.8,-9999.0,'111111111,111111111,999999991'
Anadarko,ioos:station:wmo:42377:1,2022-02-01T19:02:00Z,27.2925,-90.9681,21.3,29.9,127.3,-9999.0,'111111111,111111111,999999991'
Anadarko,ioos:station:wmo:42377:1,2022-02-01T19:22:00Z,27.2925,-90.9681,21.3,31.3,123.3,-9999.0,'111111111,111111111,999999991'
Anadarko,ioos:station:wmo:42377:1,2022-02-01T19:42:00Z,27.2925,-90.9681,21.3,34.1,120.8,-9999.0,'111111111,111111111,999999991'
Anadarko,ioos:station:wmo:42377:1,2022-02-01T20:02:00Z,27.2925,-90.9681,21.3,35.6,120.0,-9999.0,'111111111,111111111,999999991'
Anadarko,ioos:station:wmo:42377:1,2022-02-01T20:22:00Z,27.2925,-90.9681,21.3,38.7,120.7,-9999.0,'111111111,111111111,999999991'
Anadarko,ioos:station:wmo:42377:1,2022-02-01T20:42:00Z,27.2925,-90.9681,21.3,41.3,119.0,-9999.0,'111111111,111111111,999999991'
Anadarko,ioos:station:wmo:42377:1,2022-02-01T21:02:00Z,27.2925,-90.9681,21.3,45.6,110.4,-9999.0,'111111111,111111111,999999991'
Anadarko,ioos:station:wmo:42377:1,2022-02-01T21:22:00Z,27.2925,-90.9681,21.3,50.7,107.8,-9999.0,'111111111,111111111,999999991'
Anadarko,ioos:station:wmo:42377:1,2022-02-01T21:42:00Z,27.2925,-90.9681,21.3,54.5,108.3,-9999.0,'111111111,111111111,999999991'
Anadarko,ioos:station:wmo:42377:1,2022-02-01T22:02:00Z,27.2925,-90.9681,21.3,51.3,109.8,-9999.0,'111111111,111111111,999999991'
Anadarko,ioos:station:wmo:42377:1,2022-02-01T22:22:00Z,27.2925,-90.9681,21.3,57.5,105.6,-9999.0,'111111111,111111111,999999991'
Anadarko,ioos:station:wmo:42377:1,2022-02-01T22:42:00Z,27.2925,-90.9681,21.3,63.3,103.2,-9999.0,'111111111,111111111,999999991'
Anadarko,ioos:station:wmo:42377:1,2022-02-01T23:02:00Z,27.2925,-90.9681,21.3,60.6,105.4,-9999.0,'111111111,111111111,999999991'
Anadarko,ioos:station:wmo:42377:1,2022-02-01T23:22:00Z,27.2925,-90.9681,21.3,59.9,103.8,-9999.0,'111111111,111111111,999999991'
Anadarko,ioos:station:wmo:42377:1,2022-02-01T23:42:00Z,27.2925,-90.9681,21.3,57.9,106.6,-9999.0,'111111111,111111111,999999991'
Anadarko,ioos:station:wmo:42377:1,2022-02-02T00:02:00Z,27.2925,-90.9681,21.3,63.7,101.6,-9999.0,'111111111,111111111,999999991'
Anadarko,ioos:station:wmo:42377:1,2022-02-02T00:22:00Z,27.2925,-90.9681,21.3,67.4,101.1,-9999.0,'111111111,111111111,999999991'
Anadarko,ioos:station:wmo:42377:1,2022-02-02T00:42:00Z,27.2925,-90.9681,21.3,66.9,103.3,-9999.0,'111111111,111111111,999999991'
Anadarko,ioos:station:wmo:42377:1,2022-02-02T01:02:00Z,27.2925,-90.9681,21.3,52.9,109.9,-9999.0,'111111111,111111111,999999991'
Anadarko,ioos:station:wmo:42377:1,2022-02-02T01:22:00Z,27.2925,-90.9681,21.3,46.4,124.4,-9999.0,'111111111,111111111,999999991'
Anadarko,ioos:station:wmo:42377:1,2022-02-02T01:42:00Z,27.2925,-90.9681,21.3,44.6,132.9,-9999.0,'111111111,111111111,999999991'
Anadarko,ioos:station:wmo:42377:1,2022-02-02T02:02:00Z,27.2925,-90.9681,21.3,41.3,155.4,-9999.0,'111111111,111111111,999999991'
Anadarko,ioos:station:wmo:42377:1,2022-02-02T02:22:00Z,27.2925,-90.9681,21.3,40.9,163.2,-9999.0,'111111111,111111111,999999991'
Anadarko,ioos:station:wmo:42377:1,2022-02-02T02:42:00Z,27.2925,-90.9681,21.3,40.3,167.1,-9999.0,'111111111,111111111,999999991'
Anadarko,ioos:station:wmo:42377:1,2022-02-02T03:02:00Z,27.2925,-90.9681,21.3,42.9,177.3,-9999.0,'111111111,111111111,999999991'
Anadarko,ioos:station:wmo:42377:1,2022-02-02T03:22:00Z,27.2925,-90.9681,21.3,46.0,182.0,-9999.0,'111111111,111111111,999999991'
Anadarko,ioos:station:wmo:42377:1,2022-02-02T03:42:00Z,27.2925,-90.9681,21.3,47.4,183.9,-9999.0,'111111111,111111111,999999991'
Anadarko,ioos:station:wmo:42377:1,2022-02-02T04:02:00Z,27.2925,-90.9681,21.3,44.1,176.4,-9999.0,'111111111,111111111,999999991'
Anadarko,ioos:station:wmo:42377:1,2022-02-02T04:22:00Z,27.2925,-90.9681,21.3,42.9,172.8,-9999.0,'111111111,111111111,999999991'
Anadarko,ioos:station:wmo:42377:1,2022-02-02T04:42:00Z,27.2925,-90.9681,21.3,42.1,173.3,-9999.0,'111111111,111111111,999999991'
Anadarko,ioos:station:wmo:42377:1,2022-02-02T05:02:00Z,27.2925,-90.9681,21.3,44.8,179.2,-9999.0,'111111111,111111111,999999991'
Anadarko,ioos:station:wmo:42377:1,2022-02-02T05:22:00Z,27.2925,-90.9681,21.3,49.0,187.9,-9999.0,'111111111,111111111,999999991'
Anadarko,ioos:station:wmo:42377:1,2022-02-02T05:42:00Z,27.2925,-90.9681,21.3,50.2,190.9,-9999.0,'111111111,111111111,999999991'
Anadarko,ioos:station:wmo:42377:1,2022-02-02T06:02:00Z,27.2925,-90.9681,21.3,50.7,190.9,-9999.0,'111111111,111111111,999999991'
Anadarko,ioos:station:wmo:42377:1,2022-02-02T06:22:00Z,27.2925,-90.9681,21.3,50.2,192.0,-9999.0,'111111111,111111111,999999991'
Anadarko,ioos:station:wmo:42377:1,2022-02-02T06:42:00Z,27.2925,-90.9681,21.3,48.7,193.7,-9999.0,'111111111,111111111,999999991'
Anadarko,ioos:station:wmo:42377:1,2022-02-02T07:02:00Z,27.2925,-90.9681,21.3,47.4,196.2,-9999.0,'111111111,111111111,999999991'
Anadarko,ioos:station:wmo:42377:1,2022-02-02T07:22:00Z,27.2925,-90.9681,21.3,45.7,196.5,-9999.0,'111111111,111111111,999999991'
Anadarko,ioos:station:wmo:42377:1,2022-02-02T07:42:00Z,27.2925,-90.9681,21.3,43.8,196.0,-9999.0,'111111111,111111111,999999991'
Anadarko,ioos:station:wmo:42377:1,2022-02-02T08:02:00Z,27.2925,-90.9681,21.3,44.4,198.1,-9999.0,'111111111,111111111,999999991'
Anadarko,ioos:station:wmo:42377:1,2022-02-02T08:22:00Z,27.2925,-90.9681,21.3,44.4,200.1,-9999.0,'111111111,111111111,999999991'
Anadarko,ioos:station:wmo:42377:1,2022-02-02T08:42:00Z,27.2925,-90.9681,21.3,42.7,202.1,-9999.0,'111111111,111111111,999999991'
Anadarko,ioos:station:wmo:42377:1,2022-02-02T09:02:00Z,27.2925,-90.9681,21.3,39.3,201.7,-9999.0,'111111111,111111111,999999991'
Anadarko,ioos:station:wmo:42377:1,2022-02-02T09:22:00Z,27.2925,-90.9681,21.3,38.4,201.2,-9999.0,'111111111,111111111,999999991'
Anadarko,ioos:station:wmo:42377:1,2022-02-02T09:42:00Z,27.2925,-90.9681,21.3,38.3,200.8,-9999.0,'111111111,111111111,999999991'
Anadarko,ioos:station:wmo:42377:1,2022-02-02T10:02:00Z,27.2925,-90.9681,21.3,36.3,201.3,-9999.0,'111111111,111111111,999999991'
Anadarko,ioos:station:wmo:42377:1,2022-02-02T10:22:00Z,27.2925,-90.9681,21.3,35.5,204.5,-9999.0,'111111111,111111111,999999991'
Anadarko,ioos:station:wmo:42377:1,2022-02-02T10:42:00Z,27.2925,-90.9681,21.3,34.7,205.6,-9999.0,'111111111,111111111,999999991'
Anadarko,ioos:station:wmo:42377:1,2022-02-02T11:02:00Z,27.2925,-90.9681,21.3,32.8,208.4,-9999.0,'111111111,111111111,999999991'
Anadarko,ioos:station:wmo:42377:1,2022-02-02T11:22:00Z,27.2925,-90.9681,21.3,29.0,210.9,-9999.0,'111111111,111111111,999999991'
Anadarko,ioos:station:wmo:42377:1,2022-02-02T11:42:00Z,27.2925,-90.9681,21.3,26.0,212.1,-9999.0,'111111111,111111111,999999991'
Anadarko,ioos:station:wmo:42377:1,2022-02-02T12:02:00Z,27.2925,-90.9681,21.3,25.5,208.3,-9999.0,'111111111,111111111,999999991'
Anadarko,ioos:station:wmo:42377:1,2022-02-02T12:22:00Z,27.2925,-90.9681,21.3,26.7,207.9,-9999.0,'111111111,111111111,999999991'
Anadarko,ioos:station:wmo:42377:1,2022-02-02T12:42:00Z,27.2925,-90.9681,21.3,27.5,205.0,-9999.0,'111111111,111111111,999999991'
Anadarko,ioos:station:wmo:42377:1,2022-02-02T13:02:00Z,27.2925,-90.9681,21.3,28.1,202.8,-9999.0,'111111111,111111111,999999991'
Anadarko,ioos:station:wmo:42377:1,2022-02-02T13:22:00Z,27.2925,-90.9681,21.3,28.5,199.1,-9999.0,'111111111,111111111,999999991'
Anadarko,ioos:station:wmo:42377:1,2022-02-02T13:42:00Z,27.2925,-90.9681,21.3,25.1,185.5,-9999.0,'111111111,111111111,999999991'
Anadarko,ioos:station:wmo:42377:1,2022-02-02T14:02:00Z,27.2925,-90.9681,21.3,23.8,183.6,-9999.0,'111111111,111111111,999999991'
Anadarko,ioos:station:wmo:42377:1,2022-02-02T14:22:00Z,27.2925,-90.9681,21.3,20.9,187.7,-9999.0,'111111111,111111111,999999991'
Anadarko,ioos:station:wmo:42377:1,2022-02-02T14:42:00Z,27.2925,-90.9681,21.3,18.8,180.0,-9999.0,'111111111,111111111,999999991'
Anadarko,ioos:station:wmo:42377:1,2022-02-02T15:02:00Z,27.2925,-90.9681,21.3,20.2,185.7,-9999.0,'111111111,111111111,999999991'
Anadarko,ioos:station:wmo:42377:1,2022-02-02T15:22:00Z,27.2925,-90.9681,21.3,21.0,184.4,-9999.0,'111111111,111111111,999999991'
Anadarko,ioos:station:wmo:42377:1,2022-02-02T15:42:00Z,27.2925,-90.9681,21.3,21.0,169.6,-9999.0,'111111111,111111111,999999991'
Anadarko,ioos:station:wmo:42377:1,2022-02-02T16:02:00Z,27.2925,-90.9681,21.3,20.8,154.1,-9999.0,'111111111,111111111,999999991'
Anadarko,ioos:station:wmo:42377:1,2022-02-02T16:22:00Z,27.2925,-90.9681,21.3,23.0,147.1,-9999.0,'111111111,111111111,999999991'
Anadarko,ioos:station:wmo:42377:1,2022-02-02T16:42:00Z,27.2925,-90.9681,21.3,23.8,135.2,-9999.0,'111111111,111111111,999999991'
Anadarko,ioos:station:wmo:42377:1,2022-02-02T17:02:00Z,27.2925,-90.9681,21.3,25.8,132.5,-9999.0,'111111111,111111111,999999991'
Anadarko,ioos:station:wmo:42377:1,2022-02-02T17:22:00Z,27.2925,-90.9681,21.3,27.2,129.0,-9999.0,'111111111,111111111,999999991'
Anadarko,ioos:station:wmo:42377:1,2022-02-02T17:42:00Z,27.2925,-90.9681,21.3,28.5,127.4,-9999.0,'111111111,111111111,999999991'
Anadarko,ioos:station:wmo:42377:1,2022-02-02T18:02:00Z,27.2925,-90.9681,21.3,30.1,128.9,-9999.0,'111111111,111111111,999999991'
Anadarko,ioos:station:wmo:42377:1,2022-02-02T18:22:00Z,27.2925,-90.9681,21.3,30.5,130.7,-9999.0,'111111111,111111111,999999991'
Anadarko,ioos:station:wmo:42377:1,2022-02-02T18:42:00Z,27.2925,-90.9681,21.3,35.5,119.0,-9999.0,'111111111,111111111,999999991'
Anadarko,ioos:station:wmo:42377:1,2022-02-02T19:02:00Z,27.2925,-90.9681,21.3,37.5,117.5,-9999.0,'111111111,111111111,999999991'
Anadarko,ioos:station:wmo:42377:1,2022-02-02T19:22:00Z,27.2925,-90.9681,21.3,40.3,115.7,-9999.0,'111111111,111111111,999999991'
Anadarko,ioos:station:wmo:42377:1,2022-02-02T19:42:00Z,27.2925,-90.9681,21.3,42.0,114.8,-9999.0,'111111111,111111111,999999991'
Anadarko,ioos:station:wmo:42377:1,2022-02-02T20:02:00Z,27.2925,-90.9681,21.3,45.4,110.1,-9999.0,'111111111,111111111,999999991'
Anadarko,ioos:station:wmo:42377:1,2022-02-02T20:22:00Z,27.2925,-90.9681,21.3,45.6,111.8,-9999.0,'111111111,111111111,999999991'
Anadarko,ioos:station:wmo:42377:1,2022-02-02T20:42:00Z,27.2925,-90.9681,21.3,45.8,113.0,-9999.0,'111111111,111111111,999999991'
Anadarko,ioos:station:wmo:42377:1,2022-02-02T21:02:00Z,27.2925,-90.9681,21.3,44.0,117.2,-9999.0,'111111111,111111111,999999991'
Anadarko,ioos:station:wmo:42377:1,2022-02-02T21:22:00Z,27.2925,-90.9681,21.3,43.9,117.7,-9999.0,'111111111,111111111,999999991'
Anadarko,ioos:station:wmo:42377:1,2022-02-02T21:42:00Z,27.2925,-90.9681,21.3,43.5,120.1,-9999.0,'111111111,111111111,999999991'
Anadarko,ioos:station:wmo:42377:1,2022-02-02T22:02:00Z,27.2925,-90.9681,21.3,45.4,117.7,-9999.0,'111111111,111111111,999999991'
Anadarko,ioos:station:wmo:42377:1,2022-02-02T22:22:00Z,27.2925,-90.9681,21.3,48.2,117.9,-9999.0,'111111111,111111111,999999991'
Anadarko,ioos:station:wmo:42377:1,2022-02-02T22:42:00Z,27.2925,-90.9681,21.3,48.3,120.8,-9999.0,'111111111,111111111,999999991'
Anadarko,ioos:station:wmo:42377:1,2022-02-02T23:02:00Z,27.2925,-90.9681,21.3,46.3,123.4,-9999.0,'111111111,111111111,999999991'
Anadarko,ioos:station:wmo:42377:1,2022-02-02T23:22:00Z,27.2925,-90.9681,21.3,45.0,128.5,-9999.0,'111111111,111111111,999999991'
Anadarko,ioos:station:wmo:42377:1,2022-02-02T23:42:00Z,27.2925,-90.9681,21.3,41.7,142.5,-9999.0,'111111111,111111111,999999991'
Anadarko,ioos:station:wmo:42377:1,2022-02-03T00:02:00Z,27.2925,-90.9681,21.3,39.5,151.7,-9999.0,'111111111,111111111,999999991'
Anadarko,ioos:station:wmo:42377:1,2022-02-03T00:22:00Z,27.2925,-90.9681,21.3,39.5,163.4,-9999.0,'111111111,111111111,999999991'
Anadarko,ioos:station:wmo:42377:1,2022-02-03T00:42:00Z,27.2925,-90.9681,21.3,42.5,174.3,-9999.0,'111111111,111111111,999999991'
Anadarko,ioos:station:wmo:42377:1,2022-02-03T01:02:00Z,27.2925,-90.9681,21.3,44.3,180.6,-9999.0,'111111111,111111111,999999991'
Anadarko,ioos:station:wmo:42377:1,2022-02-03T01:22:00Z,27.2925,-90.9681,21.3,46.1,185.5,-9999.0,'111111111,111111111,999999991'
Anadarko,ioos:station:wmo:42377:1,2022-02-03T01:42:00Z,27.2925,-90.9681,21.3,48.1,190.4,-9999.0,'111111111,111111111,999999991'
Anadarko,ioos:station:wmo:42377:1,2022-02-03T02:02:00Z,27.2925,-90.9681,21.3,46.3,190.2,-9999.0,'111111111,111111111,999999991'
Anadarko,ioos:station:wmo:42377:1,2022-02-03T02:22:00Z,27.2925,-90.9681,21.3,46.4,190.9,-9999.0,'111111111,111111111,999999991'
Anadarko,ioos:station:wmo:42377:1,2022-02-03T02:42:00Z,27.2925,-90.9681,21.3,45.3,189.2,-9999.0,'111111111,111111111,999999991'
Anadarko,ioos:station:wmo:42377:1,2022-02-03T03:02:00Z,27.2925,-90.9681,21.3,45.4,185.4,-9999.0,'111111111,111111111,999999991'
Anadarko,ioos:station:wmo:42377:1,2022-02-03T03:22:00Z,27.2925,-90.9681,21.3,45.8,188.3,-9999.0,'111111111,111111111,999999991'
Anadarko,ioos:station:wmo:42377:1,2022-02-03T03:42:00Z,27.2925,-90.9681,21.3,46.7,195.3,-9999.0,'111111111,111111111,999999991'
Anadarko,ioos:station:wmo:42377:1,2022-02-03T04:02:00Z,27.2925,-90.9681,21.3,46.3,195.0,-9999.0,'111111111,111111111,999999991'
Anadarko,ioos:station:wmo:42377:1,2022-02-03T04:22:00Z,27.2925,-90.9681,21.3,45.7,194.2,-9999.0,'111111111,111111111,999999991'
Anadarko,ioos:station:wmo:42377:1,2022-02-03T04:42:00Z,27.2925,-90.9681,21.3,47.1,200.8,-9999.0,'111111111,111111111,999999991'
Anadarko,ioos:station:wmo:42377:1,2022-02-03T05:02:00Z,27.2925,-90.9681,21.3,45.4,200.6,-9999.0,'111111111,111111111,999999991'
Anadarko,ioos:station:wmo:42377:1,2022-02-03T05:22:00Z,27.2925,-90.9681,21.3,43.4,195.1,-9999.0,'111111111,111111111,999999991'
Anadarko,ioos:station:wmo:42377:1,2022-02-03T05:42:00Z,27.2925,-90.9681,21.3,42.7,200.3,-9999.0,'111111111,111111111,999999991'
Anadarko,ioos:station:wmo:42377:1,2022-02-03T06:02:00Z,27.2925,-90.9681,21.3,41.8,205.6,-9999.0,'111111111,111111111,999999991'
Anadarko,ioos:station:wmo:42377:1,2022-02-03T06:22:00Z,27.2925,-90.9681,21.3,40.9,202.4,-9999.0,'111111111,111111111,999999991'
Anadarko,ioos:station:wmo:42377:1,2022-02-03T06:42:00Z,27.2925,-90.9681,21.3,41.2,200.5,-9999.0,'111111111,111111111,999999991'
Anadarko,ioos:station:wmo:42377:1,2022-02-03T07:02:00Z,27.2925,-90.9681,21.3,39.3,198.3,-9999.0,'111111111,111111111,999999991'
Anadarko,ioos:station:wmo:42377:1,2022-02-03T07:22:00Z,27.2925,-90.9681,21.3,39.4,205.3,-9999.0,'111111111,111111111,999999991'
Anadarko,ioos:station:wmo:42377:1,2022-02-03T07:42:00Z,27.2925,-90.9681,21.3,38.6,207.6,-9999.0,'111111111,111111111,999999991'
Anadarko,ioos:station:wmo:42377:1,2022-02-03T08:02:00Z,27.2925,-90.9681,21.3,38.3,211.5,-9999.0,'111111111,111111111,999999991'
Anadarko,ioos:station:wmo:42377:1,2022-02-03T08:22:00Z,27.2925,-90.9681,21.3,35.9,211.8,-9999.0,'111111111,111111111,999999991'
Anadarko,ioos:station:wmo:42377:1,2022-02-03T08:42:00Z,27.2925,-90.9681,21.3,36.8,212.9,-9999.0,'111111111,111111111,999999991'
Anadarko,ioos:station:wmo:42377:1,2022-02-03T09:02:00Z,27.2925,-90.9681,21.3,36.4,213.5,-9999.0,'111111111,111111111,999999991'
Anadarko,ioos:station:wmo:42377:1,2022-02-03T09:22:00Z,27.2925,-90.9681,21.3,38.3,214.4,-9999.0,'111111111,111111111,999999991'
Anadarko,ioos:station:wmo:42377:1,2022-02-03T09:42:00Z,27.2925,-90.9681,21.3,33.2,212.2,-9999.0,'111111111,111111111,999999991'
Anadarko,ioos:station:wmo:42377:1,2022-02-03T10:02:00Z,27.2925,-90.9681,21.3,31.3,210.9,-9999.0,'111111111,111111111,999999991'
Anadarko,ioos:station:wmo:42377:1,2022-02-03T10:22:00Z,27.2925,-90.9681,21.3,27.6,212.0,-9999.0,'111111111,111111111,999999991'
Anadarko,ioos:station:wmo:42377:1,2022-02-03T10:42:00Z,27.2925,-90.9681,21.3,28.8,214.4,-9999.0,'111111111,111111111,999999991'
Anadarko,ioos:station:wmo:42377:1,2022-02-03T11:02:00Z,27.2925,-90.9681,21.3,25.5,216.4,-9999.0,'111111111,111111111,999999991'
Anadarko,ioos:station:wmo:42377:1,2022-02-03T11:22:00Z,27.2925,-90.9681,21.3,24.3,216.3,-9999.0,'111111111,111111111,999999991'
Anadarko,ioos:station:wmo:42377:1,2022-02-03T11:42:00Z,27.2925,-90.9681,21.3,22.3,217.2,-9999.0,'111111111,111111111,999999991'
Anadarko,ioos:station:wmo:42377:1,2022-02-03T12:02:00Z,27.2925,-90.9681,21.3,22.7,220.4,-9999.0,'111111111,111111111,999999991'
Anadarko,ioos:station:wmo:42377:1,2022-02-03T12:22:00Z,27.2925,-90.9681,21.3,22.3,213.8,-9999.0,'111111111,111111111,999999991'
Anadarko,ioos:station:wmo:42377:1,2022-02-03T12:42:00Z,27.2925,-90.9681,21.3,21.1,211.1,-9999.0,'111111111,111111111,999999991'
Anadarko,ioos:station:wmo:42377:1,2022-02-03T13:02:00Z,27.2925,-90.9681,21.3,20.0,210.0,-9999.0,'111111111,111111111,999999991'
Anadarko,ioos:station:wmo:42377:1,2022-02-03T13:22:00Z,27.2925,-90.9681,21.3,20.0,210.7,-9999.0,'111111111,111111111,999999991'